Preview of NWS' New Version of Forecast
This preview is not operational and should not be used for support decisions.

Regional Weather Roundup (RWR)

Issued by National Weather Service (NWS)

                            
000
ASUS45 KBOI 171610
RWRID 

IDAHO REGIONAL WEATHER ROUNDUP
NATIONAL WEATHER SERVICE BOISE ID
1000 AM MDT TUE SEP 17 2019

NOTE: "FAIR" INDICATES FEW OR NO CLOUDS BELOW 12000 FEET
WITH NO SIGNIFICANT WEATHER AND/OR OBSTRUCTIONS TO VISIBILITY

IDZ012-014-171700-
SOUTHWEST IDAHO

  
CITY           SKY/WX    TMP DP  RH WIND       PRES   REMARKS
BOISE          PTSUNNY   55  47  74 N5        30.06R                  
CALDWELL       MOSUNNY   57  45  64 VRB6      30.06R                  
$$

IDZ016-017-171700-
SOUTHCENTRAL IDAHO

  
CITY           SKY/WX    TMP DP  RH WIND       PRES   REMARKS
BURLEY         MOSUNNY   52  39  61 W20G25    30.07R                  
JEROME         MOSUNNY   51  44  77 W13       30.08R                  
TWIN FALLS     PTSUNNY   51  40  65 W17       30.09R                  
$$

IDZ019>023-171700-
SOUTHEAST IDAHO

  
CITY           SKY/WX    TMP DP  RH WIND       PRES   REMARKS
IDAHO FALLS    CLOUDY    49  42  77 SW23G30   30.04R                  
POCATELLO      PTSUNNY   49  41  74 SW20      30.08R                  
REXBURG        CLOUDY    48  43  82 S13       30.03R                  
$$

IDZ006-010-011-018-031-032-171700-
CENTRAL IDAHO MOUNTAINS

  
CITY           SKY/WX    TMP DP  RH WIND       PRES   REMARKS
MCCALL         LGT RAIN  44  41  89 SE6       30.01R FOG              
HAILEY         PTSUNNY   45  39  81 E9        30.04R                  
STANLEY          N/A     43  37  79 N5        30.04R                  
SALMON         LGT RAIN  50  47  89 N3        29.94R                  
CHALLIS        CLOUDY    53  40  61 SE3       29.95R                  
$$

IDZ002-004-006-007-026-171700-
NORTHERN IDAHO

  
CITY           SKY/WX    TMP DP  RH WIND       PRES   REMARKS
LEWISTON       PTSUNNY   60  47  61 VRB5      29.95S                  
LOWELL           N/A     55  53  93 CALM      29.98S                  
COEUR D'ALENE  CLOUDY    52  43  71 S12       29.95R                  
MULLAN PASS    CLOUDY    38  36  92 VRB5      29.96R WCI  34          
$$